Hourly Weather Roundup
Issued by NWS Central Illinois

Home | Current Version | Previous Version | Text Only | Print | Product List | Glossary On
Versions: 1 2 3 4 5 6 7 8 9 10 11 12 13 14 15 16 17 18 19 20 21 22 23 24 25 26 27 28 29 30 31 32 33 34 35 36 37 38 39 40 41 42 43 44 45 46 47 48 49 50
000
NZUS43 KILX 050310
HWRILX

AREA WEATHER ROUNDUP
NATIONAL WEATHER SERVICE, LINCOLN IL
1000 PM CDT MON MAY 04 2015


CITY           SKY/WX    TMP DP  RH WIND       PRES   REMARKS
BLOOMINGTON    LGT RAIN  66  64  94 SE8       30.14R FOG
CHAMPAIGN      CLOUDY    65  61  87 E10       30.13S
DANVILLE       MOCLDY    62  61  95 SE6       30.12F
DECATUR        LGT RAIN  69  63  81 E12       30.11R
EFFINGHAM      PTCLDY    71  53  54 SE6       30.14S
FLORA          PTCLDY    69  55  61 S7        30.15R
GALESBURG      CLOUDY    67  63  87 E7        30.09R
JACKSONVILLE   MOCLDY    72  60  65 E6        30.08S
LACON          CLOUDY    66  63  87 E9        30.11S
LAWRENCEVILLE  PTCLDY    68  56  65 S9        30.15R
LITCHFIELD     MOCLDY    72  56  55 S9        30.10S
$$


CITY           SKY/WX    TMP DP  RH WIND       PRES   REMARKS
LINCOLN        TSTM      70  64  80 N9G21     30.12R
MACOMB         TSTM      65  63  96 SE6       30.12R
MATTOON        MOCLDY    71  57  61 S6        30.12R
MT CARMEL AP   CLEAR     72  50  46 S7        30.15S
OLNEY-NOBLE AP CLEAR     70  55  60 SE5       30.14S
PARIS          CLOUDY    67  60  77 E5        30.15R THUNDER
PEORIA         CLOUDY    68  64  87 E9        30.11R FOG
PONTIAC        CLOUDY    66  64  92 E9        30.14R
RANTOUL        CLOUDY    67  62  86 E8        30.14R
ROBINSON       PTCLDY    68  56  64 S6        30.15S
SPRINGFIELD    CLOUDY    72  61  68 N12       30.10R
TAYLORVILLE    CLOUDY    73  57  56 S8        30.10R
$$

...REGIONAL REPORTS...


CITY           SKY/WX    TMP DP  RH WIND       PRES   REMARKS
CHICAGO O`HARE CLOUDY    55  39  54 NE7       30.18S
KANKAKEE       CLOUDY    62  60  93 NE7       30.15S
MOLINE         CLOUDY    66  61  84 E9        30.10R
MOUNT VERNON   MOCLDY   N/A N/A N/A CALM      30.15R
PITTSFIELD     CLOUDY    74  59  61 CALM      30.08S
QUINCY         LGT RAIN  69  62  78 S8        30.08R
ROCKFORD       CLOUDY    61  42  49 E15       30.16S
$$


CITY           SKY/WX    TMP DP  RH WIND       PRES   REMARKS
BURLINGTON     CLOUDY    66  62  87 NE3       30.07R
CEDAR RAPIDS   TSTM      63  63 100 NE13G21   30.11R FOG
DES MOINES     LGT RAIN  64  60  87 E12       30.08S
KIRKSVILLE     CLOUDY    68  64  87 CALM      30.07R
OTTUMWA        CLOUDY    67  64  90 NE8       30.07R
ST LOUIS       MOCLDY    79  54  41 S9        30.10R
$$


CITY           SKY/WX    TMP DP  RH WIND       PRES   REMARKS
TERRE HAUTE    MOCLDY    66  59  78 NE6       30.15R
EVANSVILLE     CLEAR     72  56  57 S5        30.18R
INDIANAPOLIS   CLOUDY    66  57  72 E9        30.17S
LAFAYETTE      PTCLDY    60  60 100 E5        30.16R FOG
MADISON        MOCLDY    60  37  42 E9        30.18R
MILWAUKEE      MOCLDY    52  34  50 N5        30.20S
$$





USA.gov is the U.S. government's official web portal to all federal, state and local government web resources and services.